Lid_Strength_Index
11 11 11 12 12 12 13 12 14 12 12 10 9 9 9 8 8 7 7 7 7 7 7 6 6 6 6 6 6 6 6 6 6 5 5 5 4 4 5 5 5 5 5 5
13 11 11 12 11 11 11 11 11 11 12 10 9 9 9 9 9 9 9 8 7 6 6 6 6 6 6 6 6 6 6 6 6 6 5 5 4 5 4 5 5 5 5 4
14 11 12 14 11 11 10 9 10 12 12 11 11 11 10 10 10 10 9 8 8 7 6 6 6 6 6 6 6 6 6 6 6 6 6 5 5 5 5 5 5 5 5 4
15 13 18 12 9 9 10 11 11 11 11 11 11 10 9 9 10 10 9 9 8 7 7 6 5 5 5 6 6 7 6 6 6 6 6 6 6 5 5 5 5 4 4 4
16 15 14 13 11 11 11 13 11 12 11 11 11 10 8 8 9 9 9 8 8 8 7 7 6 6 6 5 5 6 6 6 6 6 6 6 5 5 5 5 5 4 4 4
15 18 18 12 10 9 9 13 11 11 11 11 11 14 11 9 9 9 9 8 8 8 7 7 7 6 6 6 5 5 5 5 5 5 6 6 5 4 5 5 5 5 5 4
15 16 14 11 11 8 14 13 12 11 11 12 12 11 10 9 9 9 9 8 8 7 7 7 7 7 7 6 6 5 5 5 5 5 5 5 5 4 5 5 5 5 5 5
15 17 19 10 10 14 12 10 11 11 11 11 11 11 11 10 10 9 9 8 8 8 7 7 7 7 7 7 6 5 5 6 5 5 5 5 5 4 5 5 6 6 6 6
14 14 10 9 10 9 9 10 10 10 10 10 11 11 11 10 10 9 9 9 8 8 8 7 6 7 7 6 6 6 6 5 5 5 5 5 5 5 5 5 6 6 6 6
12 11 10 10 9 8 7 9 9 9 10 10 11 11 11 10 10 10 9 8 8 8 8 8 6 6 7 6 6 6 6 5 5 5 5 5 5 5 5 5 5 5 6 6
10 10 8 9 9 9 8 8 9 8 9 9 9 10 10 9 10 9 9 8 8 8 8 7 6 6 6 6 6 6 6 5 4 4 5 5 5 5 5 5 5 5 5 5
11 8 8 10 8 7 7 8 7 8 8 8 8 9 8 8 8 8 8 8 8 8 8 7 6 6 6 5 6 7 6 6 5 4 4 5 5 5 7 7 7 7 6 5
6 5 5 5 6 5 6 6 5 6 6 7 7 7 7 8 7 7 8 8 8 8 7 7 7 6 6 5 5 6 6 6 5 5 5 5 5 5 5 5 7 7 7 6
4 4 5 4 5 3 3 3 3 4 4 5 6 6 6 6 7 7 7 7 6 6 7 7 7 7 5 5 5 6 5 6 5 5 5 5 5 5 4 5 5 4 6 7
4 3 4 3 3 3 3 3 4 4 4 3 3 4 4 5 5 5 5 5 5 5 6 6 6 7 5 5 5 5 5 4 5 4 5 5 5 5 5 4 5 5 5 6
4 4 4 5 5 5 5 5 6 6 5 4 4 3 3 3 3 3 3 3 4 5 4 4 4 4 5 5 5 4 4 5 5 5 5 6 5 6 5 5 5 5 6 6
6 7 7 7 7 7 7 7 7 7 7 7 7 6 5 5 4 4 3 2 2 2 2 2 3 2 2 3 3 4 3 4 4 4 5 5 6 5 5 4 4 5 5 6
6 6 7 8 9 10 10 9 9 9 9 8 7 7 7 7 7 6 5 4 4 4 3 3 2 2 2 2 2 2 2 3 3 4 4 5 5 5 5 4 4 5 5 6
7 8 8 9 9 10 11 11 11 10 9 8 8 8 7 7 7 7 6 6 7 7 6 4 4 3 3 2 2 2 2 2 3 4 4 4 5 5 4 5 5 5 6 6
8 8 9 10 10 11 11 11 11 11 10 9 9 9 9 9 8 8 8 8 7 7 6 5 5 4 3 3 3 2 2 2 2 2 2 4 4 4 4 6 6 6 5 6
9 10 10 10 11 11 11 11 11 12 11 11 11 11 11 10 10 10 11 12 10 9 8 7 7 6 5 3 3 2 2 2 2 2 3 3 3 4 4 5 5 6 6 6
10 10 10 11 11 11 11 11 11 12 12 13 13 13 13 12 12 12 11 11 10 9 10 10 9 8 8 6 5 4 4 3 3 2 3 3 4 5 5 6 7 7 7 6
10 10 10 11 11 11 10 11 11 12 12 13 13 13 13 12 13 13 14 11 11 10 10 10 9 9 10 11 10 9 7 6 5 5 5 5 6 7 7 8 7 7 8 7
10 10 10 10 10 11 12 11 11 11 12 12 12 12 13 13 13 12 12 12 11 12 12 11 11 11 11 13 13 13 12 12 10 8 7 7 7 8 8 8 9 9 8 9
10 10 11 11 11 12 11 11 12 12 12 12 12 12 12 11 13 13 12 13 12 12 13 11 11 11 13 14 14 14 14 13 13 13 13 12 12 12 12 12 12 12 12 12
11 11 11 11 12 11 11 11 12 12 11 12 12 12 12 12 11 12 12 12 12 13 13 13 12 13 13 14 14 15 15 14 14 14 15 14 14 15 14 15 14 14 14 14
12 11 12 12 11 11 11 11 12 12 11 11 12 11 11 11 11 11 11 12 12 12 12 12 12 12 13 14 14 15 15 15 14 15 14 14 14 14 14 14 14 14 14 14